www.pogodaiklimat.ru

Погода и климат >> Архив погоды >> Индия >> Махараштра >> Нагпур


ПОГОДА в Нагпуре

  • Прогноз погоды в Нагпуре
  • Монитор погоды в Нагпуре

АРХИВ ПОГОДЫ в Нагпуре

Время (UTC), дата Ветер
(напр.,м/с)
 
Видим.   Явления Облачность Т
(С)
Тd
(С)
f
(%)
Тe
(С)
Тes
(С)
Комфортность P
(гПа)
Po
(гПа)
Тmin
(С)
Tmax
(С)
R
(мм)
R24
(мм)
S
(см)
12 8.09 З 2 4000 м мгла {дождь} 9/5 300 м
[Frnb As op]
+26.8 +24.8 89 +38 +38 очень
душно
1000.3 965.6 +27.1 2
15 8.09 Ю 1 2000 м мгла 8/5 300 м
[Frnb Ac trans]
+26.0 +25.4 97 +38 +38 очень
душно
1002.5 967.6 2
18 8.09 штиль 0 2000 м мгла 9/6 300 м
[Frnb Ac trans]
+25.0 +24.6 98 +35 +35 очень
душно
1003.0 968.0 2
21 8.09 ЮЗ 2 2000 м мгла 9/5 300 м
[Frnb Ac trans]
+24.6 +24.0 96 +34 +34 очень
душно
1001.3 966.3 2
00 9.09 ЮЗ 1 2000 м мгла 9/6 300 м
[Frnb Ac trans]
+24.0 +23.1 95 +32 +32 очень
душно
1001.5 966.4 2
03 9.09 ЮЗ 3 4000 м слаб. морось {дождь} 9/6 300 м
[Frnb Ac trans]
+26.0 +25.8 99 +38 +40 очень
душно
1003.1 968.2 +23.5 2
06 9.09 ЮЗ 5 4000 м мгла 9/6 300 м
[Frnb Ac trans]
+28.6 +24.9 80 +41 +43 опасность
перегрева
1002.6 968.0 0.0
09 9.09 З 4 4000 м мгла 9/5 540 м
[Cb cap Ac trans]
+31.0 +25.1 71 +45 +47 опасность
перегрева
999.2 965.0
12 9.09 Ю 2 4000 м мгла {дождь} 9/5 540 м
[Cb cap Ac trans]
+27.6 +25.9 90 +41 +41 опасность
перегрева
999.6 965.0 +31.4 2
15 9.09 Ю 1 2000 м мгла 8/4 540 м
[Sc Ac trans]
+25.8 +24.9 95 +37 +37 очень
душно
1001.6 966.7 2
18 9.09 Ю 1 2000 м мгла 8/4 540 м
[Sc Ac trans]
+25.2 +24.6 96 +35 +35 очень
душно
1002.1 967.1 2
21 9.09 Ю 1 2000 м мгла 8/4 540 м
[Sc Ac trans]
+24.6 +24.0 96 +34 +34 очень
душно
1001.3 966.3 2
00 10.09 ЮЗ 2 2000 м мгла 8/4 540 м
[Sc Ac trans]
+24.8 +23.9 95 +34 +34 очень
душно
1001.8 966.8 2
03 10.09 ЮЗ 3 4000 м мгла 10/4 540 м
[Sc As op]
+26.0 +24.6 92 +37 +37 очень
душно
1002.8 967.9 +24.3 2
06 10.09 Ю 3 4000 м мгла 9/4 540 м
[Sc As op]
+29.6 +25.1 77 +43 +46 опасность
перегрева
1002.1 967.6
09 10.09 Ю 3 4000 м мгла 9/5 540 м
[Cu Sc Ac trans]
+31.2 +25.6 72 +46 +49 опасность
перегрева
999.6 965.4
12 10.09 З 4 2000 м мгла 9/6 450 м
[Cb calv As op]
+29.4 +25.4 79 +43 +43 опасность
перегрева
999.6 965.2 +32.0
15 10.09 З 3 2000 м гроза, ливневой дождь 9/6 300 м
[Cb cap As op]
+27.0 +25.3 90 +39 +39 очень
душно
1003.3 968.5 0.1
18 10.09 Ю 2 2000 м мгла {гроза, дождь} н/о +26.0 +25.1 95 +37 +37 очень
душно
1003.3 968.4 0.6
21 10.09 Ю 2 2000 м мгла 9/6 300 м
[Frnb As op]
+26.0 +25.1 95 +37 +37 очень
душно
1002.6 967.7 0.6
00 11.09 Ю 1 2000 м мгла 6/3 540 м
[Sc Ac trans]
+25.4 +24.2 93 +35 +35 очень
душно
1002.7 967.7 0.6
03 11.09 З 3 4000 м мгла 9/4 540 м
[Sc Ac trans]
+27.0 +24.7 87 +38 +40 очень
душно
1004.6 969.8 +25.0 0.6
06 11.09 ЮЗ 2 2000 м мгла 9/6 300 м
[Frnb Ac trans]
+26.8 +24.8 89 +38 +42 очень
душно
1004.8 969.9
09 11.09 штиль 0 2000 м мгла {дождь} 9/6 300 м
[Frnb Ac trans]
+26.6 +25.2 92 +38 +43 очень
душно
1002.7 967.9 0.0
12 11.09 ЮЗ 1 2000 м мгла {дождь} 9/5 300 м
[Frnb Ac trans]
+26.0 +24.9 94 +37 +37 очень
душно
1002.3 967.4 +27.7 0.0
15 11.09 Ю 1 2000 м мгла {дождь} 9/6 300 м
[Cb cap As op]
+25.8 +24.9 95 +37 +37 очень
душно
1004.7 969.7 0.0
18 11.09 ЮЗ 1 1000 м дождь 9/6 300 м
[Cb cap As op]
+25.4 +25.1 98 +36 +36 очень
душно
1005.1 970.1 11
21 11.09 ЮЗ 1 2000 м слаб. дождь 9/6 300 м
[Cb cap As op]
+25.0 +24.7 98 +35 +35 очень
душно
1003.6 968.6 12
00 12.09 ЮЗ 1 2000 м мгла {дождь} 8/5 300 м
[Frnb As op]
+24.8 +24.5 98 +35 +35 очень
душно
1004.2 969.1 12
03 12.09 З 1 2000 м мгла {дождь} 10/5 300 м
[Frnb As op]
+25.4 +24.8 96 +36 +37 очень
душно
1005.5 970.4 +24.4 12
06 12.09 З 1 2000 м мгла 10/5 300 м
[Frnb As op]
+28.6 +25.2 82 +42 +44 опасность
перегрева
1005.6 970.9
09 12.09 ЮЗ 3 4000 м мгла 10/5 540 м
[Sc As op]
+28.8 +24.5 78 +41 +42 опасность
перегрева
1003.0 968.4
12 12.09 Ю 1 2000 м мгла {гроза, дождь} 9/6 300 м
[Cb cap As op]
+26.4 +25.3 94 +38 +39 очень
душно
1002.9 968.0 +29.5 7
15 12.09 ЮЗ 3 2000 м мгла 9/5 300 м
[Frnb Ac trans]
+25.6 +25.0 96 +36 +36 очень
душно
1005.3 970.3 7
18 12.09 Ю 2 2000 м мгла 9/5 300 м
[Frnb Ac trans]
+25.0 +24.1 95 +34 +34 очень
душно
1005.8 970.7 7
21 12.09 Ю 3 2000 м мгла 9/5 300 м
[Frnb Ac trans]
+24.2 +23.3 95 +32 +32 очень
душно
1004.3 969.1 7
00 13.09 Ю 1 2000 м мгла 9/6 300 м
[Frnb Ac trans]
+24.0 +23.4 96 +32 +32 очень
душно
1005.0 969.8 7
03 13.09 Ю 5 2000 м мгла {дождь} 10/5 300 м
[Frnb As op]
+25.0 +23.9 94 +34 +35 очень
душно
1006.7 971.6 +24.7 7
06 13.09 ЮЗ 4 4000 м мгла 9/5 540 м
[Cu Sc As op]
+28.6 +24.0 76 +40 +42 очень
душно
1006.5 971.8
09 13.09 ЮЗ 3 4000 м мгла 9/6 300 м
[Frnb Ac trans]
+30.0 +24.6 73 +43 +45 опасность
перегрева
1003.7 969.2
12 13.09 З 4 2000 м слаб. дождь 9/5 300 м
[Frnb Ac trans]
+27.2 +24.0 83 +38 +38 очень
душно
1003.5 968.7 +30.9 0.0
15 13.09 Ю 2 2000 м мгла {дождь} 9/5 300 м
[Frnb As op]
+25.4 +23.9 91 +35 +35 очень
душно
1005.8 970.7 0.0
18 13.09 Ю 2 2000 м мгла {дождь} 9/5 300 м
[Frnb As op]
+24.4 +23.5 95 +33 +33 очень
душно
1006.1 970.9 0.0
21 13.09 Ю 2 2000 м мгла 9/5 300 м
[Frnb As op]
+24.0 +23.1 95 +32 +32 очень
душно
1004.6 969.4 0.0
00 14.09 ЮЗ 1 2000 м морось {дождь} 9/5 300 м
[Frnb As op]
+23.8 +23.4 98 +32 +32 очень
душно
1004.9 969.7 1
03 14.09 ЮЗ 3 2000 м слаб. дождь 10/6 300 м
[Frnb As op]
+24.2 +23.9 98 +33 +33 очень
душно
1007.4 972.1 +23.7 4
06 14.09 Ю 2 2000 м мгла {дождь} 10/6 300 м
[Frnb As op]
+24.6 +23.7 95 +33 +35 очень
душно
1007.6 972.4 0.2
09 14.09 ЮЗ 3 2000 м мгла 10/6 300 м
[Frnb As op]
+26.0 +24.6 92 +37 +38 очень
душно
1005.1 970.1 0.2
12 14.09 Ю 2 2000 м мгла 10/6 300 м
[Frnb As op]
+26.2 +24.9 93 +37 +38 очень
душно
1004.7 969.8 +27.0 0.2
15 14.09 Ю 1 2000 м мгла 10/6 300 м
[Frnb As op]
+24.8 +23.6 93 +34 +34 очень
душно
1006.7 971.5 0.2
18 14.09 Ю 2 2000 м мгла 10/6 300 м
[Frnb As op]
+24.6 +24.3 98 +34 +34 очень
душно
1007.2 972.0 0.2
21 14.09 Ю 2 2000 м мгла 10/6 300 м
[Frnb As op]
+24.4 +24.1 98 +34 +34 очень
душно
1005.6 970.4 0.2
00 15.09 Ю 1 2000 м слаб. дождь 10/6 300 м
[Frnb As op]
+24.0 +23.7 98 +33 +33 очень
душно
1006.5 971.2 0.2
03 15.09 ЮЗ 3 1000 м дымка 10/6 300 м
[Frnb As op]
+25.4 +24.5 95 +36 +36 очень
душно
1007.5 972.4 +24.7 0.2
06 15.09 Ю 2 4000 м мгла 9/6 300 м
[Frnb Ac trans]
+29.2 +24.6 76 +41 +45 опасность
перегрева
1006.7 972.0
09 15.09 С 1 2000 м слаб. дождь 10/6 300 м
[Frnb As op]
+27.8 +25.2 86 +40 +42 очень
душно
1005.1 970.3 0.0

 

Местоположение метеостанции Нагпур (Махараштра, Индия): широта 21.10 долгота 79.05 высота над уровнем моря 310 м.

В архиве по умолчанию представлена погода в Нагпуре за последнюю неделю. Архивные данные за месяц целиком и за предыдущие месяцы, начиная с января 2011 года, Вы можете получить, выбрав интересующий диапазон дат из раскрывающегося списка и нажав кнопку "Ввод!".


*Определитесь, кто Вы:
робот инопланетянин человек

Внимание! Время в таблицах - всемирное. Для получения местного времени необходимо прибавить поправку, которая равна 5.5 ч.

Смотрите также архив погоды в соседних городах и на ближайших метеорологических станциях:

Погода в Вардхе (Махараштра, Индия) (68 км)
Погода в Брамапури (Махараштра, Индия) (100 км)
Погода в Чхиндваре (Мадхья-Прадеш, Индия) (111 км)
Погода в Сеони (Мадхья-Прадеш, Индия) (121 км)
Погода в Яватмале (Махараштра, Индия) (122 км)
Погода в Гондии (Махараштра, Индия) (126 км)
Погода в Чандрапуре (Махараштра, Индия) (128 км)
Погода в Амравати (Махараштра, Индия) (133 км)
Погода в Бетуле (Мадхья-Прадеш, Индия) (144 км)
Погода в Пачмарае (Мадхья-Прадеш, Индия) (165 км)

Пояснения к столбцам:

Ветер - указаны скорость ветра в м/с - средняя за 10 мин, порывы в срок и между сроками (в фигурных скобках) и направление, откуда дует ветер: С - северный, СВ - северо-восточный, В - восточный, ЮВ - юго-восточный, Ю - южный, ЮЗ - юго-западный, З - западный, СЗ - северо-западный.
Видимость - горизонтальная дальность видимости в метрах или километрах. При видимости от 1 до 10 км при отсутствии осадков обычно наблюдается дымка, при ухудшении видимости до 1 км и менее - туман. В сухую погоду видимость может ухудшаться дымом, пылью или мглою.
Явления - указаны атмосферные явления, наблюдавшиеся в срок или в последний час перед сроком; фигурными скобками обозначены явления, наблюдавшиеся между сроками (за 1-3 часа до срока); квадратными скобками обозначены град или гололедные отложения с указанием их диаметра в мм.
Облачность - указаны через наклонную черту общая и нижняя облачность в баллах и высота нижней границы облаков в метрах; квадратными скобками обозначены формы облаков: Ci - перистые, Cs - перисто-слоистые, Cc - перисто-кучевые, Ac - высококучевые, As - высокослоистые, Sc - слоисто-кучевые, Ns - слоисто-дождевые, Cu - кучевые, Cb - кучево-дождевые. Подробнее классификацию облаков см. в Атласе облаков (PDF).
T - Температура воздуха - температура, измеренная на высоте 2 м над землей.
Td - Температура точки росы - температура, при понижении до которой содержащийся в воздухе водяной пар достигнет насыщения.
f - Относительная влажность воздуха - влажноcть воздуха, измеренная на высоте 2 м над землей.
Te - Эффективная температура - температура, которую ощущает одетый по сезону человек в тени. Характеристика душности погоды. При расчете учитывается влияние влажности воздуха и скорости ветра на теплоощущения человека.
Tes - Эффективная температура на солнце - температура, которую ощущает человек, с поправкой на солнечный нагрев. Характеристика знойности погоды. Зависит от высоты солнца над горизонтом, облачности и скорости ветра. Ночью, в пасмурную погоду, а также при ветре 12 м/с и более поправка равна нулю.
P - Атмосферное давление - приведенное к уровню моря атмосферное давление.
Po - Атмосферное давление - измеренное на уровне метеостанции атмосферное давление.
Tmin - Минимальная температура - минимум температуры воздуха на высоте 2 м над землей.
Tmax - Максимальная температура - максимум температуры воздуха на высоте 2 м над землей.
R - Количество осадков - Количество выпавших осадков за период времени, мм. При наведении курсора мыши на число - период времени, за который выпало указанное количество осадков.
R24 - Количество осадков - Количество выпавших осадков за 24 часа, мм.
S - Снежный покров - Высота снежного покрова, см. При наведении курсора мыши на число - состояние снежного покрова и степень покрытия местности в баллах.